{"data":{"norad_id":60923,"epoch":"2026-05-24T18:57:33.391584Z","epoch_age_seconds":93063,"freshness":"FRESH","line1":"1 60923U 24154W   26144.78996981 -.00000395  00000+0 -12018-5 0  9995","line2":"2 60923  53.1614 290.5463 0001204  95.8919 264.2219 15.30187590 97998","mean_motion":15.3018759,"eccentricity":0.0001204,"inclination_deg":53.1614,"raan_deg":290.5463,"arg_perigee_deg":95.8919,"mean_anomaly_deg":264.2219,"bstar":-1.2018e-6,"rev_number":9799,"period_min":94.106108911784,"perigee_km":474.42697564234,"apogee_km":476.07727174333,"semimajor_km":6853.3891236928,"source":"CELESTRAK","updated_at":"2026-05-25T13:38:19.316579Z"}}